| time (UTC) | temp F | wind direction | speed MPH | gust MPH | rain 1hr in | rain 24hr in | rain mn in | humidity % | barometer mb |
| 20260506193828 | 52 | 10 | 8.0 | 15.0 | 0.00 | 0.00 | 0.00 | 62 | 1013.4 |
| 20260506191828 | 53 | 14 | 8.0 | 15.0 | 0.00 | 0.00 | 0.00 | 62 | 1013.4 |
| 20260506190827 | 53 | 18 | 8.0 | 15.0 | 0.00 | 0.00 | 0.00 | 62 | 1013.4 |
| 20260506185827 | 53 | 17 | 8.0 | 14.0 | 0.00 | 0.00 | 0.00 | 60 | 1013.0 |
| 20260506183827 | 53 | 358 | 6.0 | 12.0 | 0.00 | 0.00 | 0.00 | 60 | 1013.0 |
| 20260506182829 | 53 | 355 | 6.0 | 12.0 | 0.00 | 0.00 | 0.00 | 63 | 1012.8 |
| 20260506181827 | 53 | 355 | 6.0 | 12.0 | 0.00 | 0.00 | 0.00 | 63 | 1012.8 |
| 20260506180828 | 53 | 352 | 6.0 | 12.0 | 0.00 | 0.00 | 0.00 | 63 | 1012.8 |
| 20260506175827 | 53 | 356 | 7.0 | 15.0 | 0.00 | 0.00 | 0.00 | 63 | 1012.6 |
| 20260506172827 | 54 | 359 | 8.0 | 17.0 | 0.00 | 0.00 | 0.00 | 60 | 1012.6 |
| 20260506164827 | 54 | 2 | 7.0 | 14.0 | 0.00 | 0.00 | 0.00 | 62 | 1012.4 |
| 20260506161827 | 54 | 359 | 7.0 | 14.0 | 0.00 | 0.00 | 0.00 | 62 | 1012.4 |
| 20260506160827 | 54 | 0 | 7.0 | 14.0 | 0.00 | 0.01 | 0.01 | 60 | 1012.3 |
| 20260506154828 | 54 | 358 | 8.0 | 18.0 | 0.00 | 0.01 | 0.01 | 64 | 1012.4 |
| 20260506152827 | 53 | 353 | 9.0 | 18.0 | 0.00 | 0.01 | 0.01 | 64 | 1012.4 |
| 20260506144827 | 53 | 10 | 10.0 | 19.0 | 0.00 | 0.01 | 0.01 | 64 | 1012.6 |
| 20260506130827 | 53 | 10 | 10.0 | 19.0 | 0.00 | 0.01 | 0.01 | 74 | 1012.9 |
| 20260506124827 | 53 | 12 | 10.0 | 21.0 | 0.00 | 0.00 | 0.00 | 73 | 1012.6 |
| 20260506122827 | 52 | 16 | 11.0 | 21.0 | 0.00 | 0.00 | 0.00 | 73 | 1012.6 |
| 20260506120827 | 52 | 18 | 12.0 | 22.0 | 0.00 | 0.00 | 0.00 | 73 | 1012.6 |
| 20260506115827 | 53 | 353 | 12.0 | 22.0 | 0.00 | 0.00 | 0.00 | 58 | 1012.2 |
| 20260506111827 | 52 | 358 | 11.0 | 22.0 | 0.00 | 0.00 | 0.00 | 63 | 1012.5 |
| 20260506110828 | 53 | 0 | 11.0 | 22.0 | 0.00 | 0.00 | 0.00 | 63 | 1012.5 |
| 20260506103827 | 52 | 357 | 9.0 | 20.0 | 0.00 | 0.00 | 0.00 | 64 | 1012.2 |
| 20260506093827 | 52 | 358 | 10.0 | 20.0 | 0.00 | 0.00 | 0.00 | 63 | 1012.4 |
| 20260506080827 | 49 | 350 | 11.0 | 21.0 | 0.00 | 0.00 | 0.00 | 67 | 1012.6 |
| 20260506061827 | 48 | 354 | 10.0 | 18.0 | 0.00 | 0.00 | 0.00 | 73 | 1012.3 |